Year,Month,Day,Hour,Minute,Value (Times are PST for temperature in C)
2015,08,26,00,00,13.70
2015,08,26,00,01,13.70
2015,08,26,00,02,13.70
2015,08,26,00,03,13.70
2015,08,26,00,04,13.70
2015,08,26,00,05,13.70
2015,08,26,00,06,13.70
2015,08,26,00,07,13.80
2015,08,26,00,08,13.80
2015,08,26,00,09,13.80
2015,08,26,00,10,13.80
2015,08,26,00,11,13.80
2015,08,26,00,12,13.80
2015,08,26,00,13,13.80
2015,08,26,00,14,13.80
2015,08,26,00,15,13.80
2015,08,26,00,16,13.80
2015,08,26,00,17,13.80
2015,08,26,00,18,13.80
2015,08,26,00,19,13.80
2015,08,26,00,20,13.90
2015,08,26,00,21,13.90
2015,08,26,00,22,14.00
2015,08,26,00,23,14.00
2015,08,26,00,24,14.10
2015,08,26,00,25,14.10
2015,08,26,00,26,14.10
2015,08,26,00,27,14.10
2015,08,26,00,28,14.00
2015,08,26,00,29,14.00
2015,08,26,00,30,14.00
2015,08,26,00,31,14.00
2015,08,26,00,32,13.90
2015,08,26,00,33,13.90
2015,08,26,00,34,13.90
2015,08,26,00,35,13.90
2015,08,26,00,36,13.90
2015,08,26,00,37,13.90
2015,08,26,00,38,13.90
2015,08,26,00,39,13.90
2015,08,26,00,40,13.90
2015,08,26,00,41,13.80
2015,08,26,00,42,13.80
2015,08,26,00,43,13.80
2015,08,26,00,44,13.80
2015,08,26,00,45,13.80
2015,08,26,00,46,13.80
2015,08,26,00,47,13.80
2015,08,26,00,48,13.70
2015,08,26,00,49,13.70
2015,08,26,00,50,13.70
2015,08,26,00,51,13.70
2015,08,26,00,52,13.70
2015,08,26,00,53,13.70
2015,08,26,00,54,13.70
2015,08,26,00,55,13.70
2015,08,26,00,56,13.70
2015,08,26,00,57,13.70
2015,08,26,00,58,13.70
2015,08,26,00,59,13.70
2015,08,26,01,00,13.70
2015,08,26,01,01,13.70
2015,08,26,01,02,13.70
2015,08,26,01,03,13.60
2015,08,26,01,04,13.60
2015,08,26,01,05,13.60
2015,08,26,01,06,13.60
2015,08,26,01,07,13.60
2015,08,26,01,08,13.60
2015,08,26,01,09,13.60
2015,08,26,01,10,13.60
2015,08,26,01,11,13.60
2015,08,26,01,12,13.50
2015,08,26,01,13,13.50
2015,08,26,01,14,13.50
2015,08,26,01,15,13.50
2015,08,26,01,16,13.40
2015,08,26,01,17,13.40
2015,08,26,01,18,13.40
2015,08,26,01,19,13.40
2015,08,26,01,20,13.40
2015,08,26,01,21,13.40
2015,08,26,01,22,13.40
2015,08,26,01,23,13.40
2015,08,26,01,24,13.40
2015,08,26,01,25,13.40
2015,08,26,01,26,13.40
2015,08,26,01,27,13.40
2015,08,26,01,28,13.40
2015,08,26,01,29,13.40
2015,08,26,01,30,13.40
2015,08,26,01,31,13.30
2015,08,26,01,32,13.30
2015,08,26,01,33,13.30
2015,08,26,01,34,13.30
2015,08,26,01,35,13.30
2015,08,26,01,36,13.30
2015,08,26,01,37,13.30
2015,08,26,01,38,13.30
2015,08,26,01,39,13.30
2015,08,26,01,40,13.20
2015,08,26,01,41,13.20
2015,08,26,01,42,13.20
2015,08,26,01,43,13.20
2015,08,26,01,44,13.20
2015,08,26,01,45,13.10
2015,08,26,01,46,13.10
2015,08,26,01,47,13.10
2015,08,26,01,48,13.10
2015,08,26,01,49,13.10
2015,08,26,01,50,13.10
2015,08,26,01,51,13.00
2015,08,26,01,52,13.00
2015,08,26,01,53,12.90
2015,08,26,01,54,12.90
2015,08,26,01,55,12.90
2015,08,26,01,56,12.90
2015,08,26,01,57,12.90
2015,08,26,01,58,12.80
2015,08,26,01,59,12.80
2015,08,26,02,00,12.70
2015,08,26,02,01,12.70
2015,08,26,02,02,12.70
2015,08,26,02,03,12.60
2015,08,26,02,04,12.60
2015,08,26,02,05,12.60
2015,08,26,02,06,12.60
2015,08,26,02,07,12.50
2015,08,26,02,08,12.50
2015,08,26,02,09,12.50
2015,08,26,02,10,12.40
2015,08,26,02,11,12.40
2015,08,26,02,12,12.40
2015,08,26,02,13,12.40
2015,08,26,02,14,12.30
2015,08,26,02,15,12.30
2015,08,26,02,16,12.30
2015,08,26,02,17,12.30
2015,08,26,02,18,12.30
2015,08,26,02,19,12.30
2015,08,26,02,20,12.20
2015,08,26,02,21,12.20
2015,08,26,02,22,12.20
2015,08,26,02,23,12.20
2015,08,26,02,24,12.20
2015,08,26,02,25,12.20
2015,08,26,02,26,12.20
2015,08,26,02,27,12.10
2015,08,26,02,28,12.10
2015,08,26,02,29,12.10
2015,08,26,02,30,12.10
2015,08,26,02,31,12.10
2015,08,26,02,32,12.10
2015,08,26,02,33,12.10
2015,08,26,02,34,12.10
2015,08,26,02,35,12.10
2015,08,26,02,36,12.10
2015,08,26,02,37,12.10
2015,08,26,02,38,12.10
2015,08,26,02,39,12.00
2015,08,26,02,40,12.00
2015,08,26,02,41,12.00
2015,08,26,02,42,11.90
2015,08,26,02,43,11.90
2015,08,26,02,44,11.90
2015,08,26,02,45,11.90
2015,08,26,02,46,11.90
2015,08,26,02,47,11.90
2015,08,26,02,48,11.90
2015,08,26,02,49,11.90
2015,08,26,02,50,11.90
2015,08,26,02,51,11.90
2015,08,26,02,52,11.90
2015,08,26,02,53,11.90
2015,08,26,02,54,11.90
2015,08,26,02,55,11.90
2015,08,26,02,56,12.00
2015,08,26,02,57,12.00
2015,08,26,02,58,12.00
2015,08,26,02,59,12.10
2015,08,26,03,00,12.10
2015,08,26,03,01,12.10
2015,08,26,03,02,12.10
2015,08,26,03,03,12.20
2015,08,26,03,04,12.20
2015,08,26,03,05,12.30
2015,08,26,03,06,12.30
2015,08,26,03,07,12.40
2015,08,26,03,08,12.40
2015,08,26,03,09,12.40
2015,08,26,03,10,12.40
2015,08,26,03,11,12.40
2015,08,26,03,12,12.40
2015,08,26,03,13,12.40
2015,08,26,03,14,12.40
2015,08,26,03,15,12.40
2015,08,26,03,16,12.40
2015,08,26,03,17,12.40
2015,08,26,03,18,12.40
2015,08,26,03,19,12.40
2015,08,26,03,20,12.50
2015,08,26,03,21,12.50
2015,08,26,03,22,12.60
2015,08,26,03,23,12.70
2015,08,26,03,24,12.80
2015,08,26,03,25,12.80
2015,08,26,03,26,12.80
2015,08,26,03,27,12.90
2015,08,26,03,28,12.90
2015,08,26,03,29,12.90
2015,08,26,03,30,12.90
2015,08,26,03,31,13.00
2015,08,26,03,32,13.00
2015,08,26,03,33,13.00
2015,08,26,03,34,13.00
2015,08,26,03,35,12.90
2015,08,26,03,36,12.90
2015,08,26,03,37,12.90
2015,08,26,03,38,12.90
2015,08,26,03,39,12.80
2015,08,26,03,40,12.80
2015,08,26,03,41,12.80
2015,08,26,03,42,12.70
2015,08,26,03,43,12.70
2015,08,26,03,44,12.60
2015,08,26,03,45,12.60
2015,08,26,03,46,12.60
2015,08,26,03,47,12.60
2015,08,26,03,48,12.50
2015,08,26,03,49,12.50
2015,08,26,03,50,12.50
2015,08,26,03,51,12.40
2015,08,26,03,52,12.40
2015,08,26,03,53,12.40
2015,08,26,03,54,12.40
2015,08,26,03,55,12.40
2015,08,26,03,56,12.30
2015,08,26,03,57,12.30
2015,08,26,03,58,12.30
2015,08,26,03,59,12.30
2015,08,26,04,00,12.30
2015,08,26,04,01,12.30
2015,08,26,04,02,12.20
2015,08,26,04,03,12.20
2015,08,26,04,04,12.20
2015,08,26,04,05,12.20
2015,08,26,04,06,12.20
2015,08,26,04,07,12.20
2015,08,26,04,08,12.10
2015,08,26,04,09,12.10
2015,08,26,04,10,12.10
2015,08,26,04,11,12.10
2015,08,26,04,12,12.10
2015,08,26,04,13,12.10
2015,08,26,04,14,12.10
2015,08,26,04,15,12.10
2015,08,26,04,16,12.10
2015,08,26,04,17,12.10
2015,08,26,04,18,12.10
2015,08,26,04,19,12.10
2015,08,26,04,20,12.10
2015,08,26,04,21,12.10
2015,08,26,04,22,12.20
2015,08,26,04,23,12.20
2015,08,26,04,24,12.20
2015,08,26,04,25,12.20
2015,08,26,04,26,12.30
2015,08,26,04,27,12.30
2015,08,26,04,28,12.30
2015,08,26,04,29,12.30
2015,08,26,04,30,12.30
2015,08,26,04,31,12.30
2015,08,26,04,32,12.20
2015,08,26,04,33,12.20
2015,08,26,04,34,12.20
2015,08,26,04,35,12.20
2015,08,26,04,36,12.30
2015,08,26,04,37,12.30
2015,08,26,04,38,12.30
2015,08,26,04,39,12.30
2015,08,26,04,40,12.30
2015,08,26,04,41,12.40
2015,08,26,04,42,12.40
2015,08,26,04,43,12.40
2015,08,26,04,44,12.50
2015,08,26,04,45,12.50
2015,08,26,04,46,12.60
2015,08,26,04,47,12.60
2015,08,26,04,48,12.70
2015,08,26,04,49,12.70
2015,08,26,04,50,12.70
2015,08,26,04,51,12.70
2015,08,26,04,52,12.70
2015,08,26,04,53,12.80
2015,08,26,04,54,12.80
2015,08,26,04,55,12.90
2015,08,26,04,56,12.90
2015,08,26,04,57,12.90
2015,08,26,04,58,12.90
2015,08,26,04,59,12.90
2015,08,26,05,00,12.90
2015,08,26,05,01,12.90
2015,08,26,05,02,13.00
2015,08,26,05,03,13.00
2015,08,26,05,04,13.10
2015,08,26,05,05,13.00
2015,08,26,05,06,13.00
2015,08,26,05,07,12.90
2015,08,26,05,08,12.90
2015,08,26,05,09,12.90
2015,08,26,05,10,12.80
2015,08,26,05,11,12.80
2015,08,26,05,12,12.80
2015,08,26,05,13,12.80
2015,08,26,05,14,12.70
2015,08,26,05,15,12.70
2015,08,26,05,16,12.70
2015,08,26,05,17,12.60
2015,08,26,05,18,12.60
2015,08,26,05,19,12.60
2015,08,26,05,20,12.50
2015,08,26,05,21,12.40
2015,08,26,05,22,12.40
2015,08,26,05,23,12.30
2015,08,26,05,24,12.30
2015,08,26,05,25,12.20
2015,08,26,05,26,12.20
2015,08,26,05,27,12.10
2015,08,26,05,28,12.10
2015,08,26,05,29,12.00
2015,08,26,05,30,12.00
2015,08,26,05,31,12.00
2015,08,26,05,32,11.90
2015,08,26,05,33,11.90
2015,08,26,05,34,11.90
2015,08,26,05,35,11.80
2015,08,26,05,36,11.80
2015,08,26,05,37,11.80
2015,08,26,05,38,11.80
2015,08,26,05,39,11.80
2015,08,26,05,40,11.80
2015,08,26,05,41,11.80
2015,08,26,05,42,11.70
2015,08,26,05,43,11.70
2015,08,26,05,44,11.70
2015,08,26,05,45,11.70
2015,08,26,05,46,11.70
2015,08,26,05,47,11.70
2015,08,26,05,48,11.70
2015,08,26,05,49,11.70
2015,08,26,05,50,11.70
2015,08,26,05,51,11.70
2015,08,26,05,52,11.70
2015,08,26,05,53,11.70
2015,08,26,05,54,11.60
2015,08,26,05,55,11.60
2015,08,26,05,56,11.60
2015,08,26,05,57,11.60
2015,08,26,05,58,11.60
2015,08,26,05,59,11.60
2015,08,26,06,00,11.60
2015,08,26,06,01,11.60
2015,08,26,06,02,11.50
2015,08,26,06,03,11.50
2015,08,26,06,04,11.50
2015,08,26,06,05,11.50
2015,08,26,06,06,11.50
2015,08,26,06,07,11.50
2015,08,26,06,08,11.50
2015,08,26,06,09,11.50
2015,08,26,06,10,11.50
2015,08,26,06,11,11.40
2015,08,26,06,12,11.40
2015,08,26,06,13,11.40
2015,08,26,06,14,11.40
2015,08,26,06,15,11.40
2015,08,26,06,16,11.40
2015,08,26,06,17,11.40
2015,08,26,06,18,11.40
2015,08,26,06,19,11.40
2015,08,26,06,20,11.40
2015,08,26,06,21,11.40
2015,08,26,06,22,11.40
2015,08,26,06,23,11.40
2015,08,26,06,24,11.40
2015,08,26,06,25,11.40
2015,08,26,06,26,11.40
2015,08,26,06,27,11.40
2015,08,26,06,28,11.40
2015,08,26,06,29,11.40
2015,08,26,06,30,11.40
2015,08,26,06,31,11.40
2015,08,26,06,32,11.40
2015,08,26,06,33,11.50
2015,08,26,06,34,11.50
2015,08,26,06,35,11.50
2015,08,26,06,36,11.50
2015,08,26,06,37,11.50
2015,08,26,06,38,11.50
2015,08,26,06,39,11.50
2015,08,26,06,40,11.50
2015,08,26,06,41,11.50
2015,08,26,06,42,11.50
2015,08,26,06,43,11.50
2015,08,26,06,44,11.50
2015,08,26,06,45,11.50
2015,08,26,06,46,11.50
2015,08,26,06,47,11.50
2015,08,26,06,48,11.50
2015,08,26,06,49,11.50
2015,08,26,06,50,11.50
2015,08,26,06,51,11.50
2015,08,26,06,52,11.50
2015,08,26,06,53,11.50
2015,08,26,06,54,11.50
2015,08,26,06,55,11.60
2015,08,26,06,56,11.60
2015,08,26,06,57,11.60
2015,08,26,06,58,11.60
2015,08,26,06,59,11.60
2015,08,26,07,00,11.60
2015,08,26,07,01,11.60
2015,08,26,07,02,11.60
2015,08,26,07,03,11.70
2015,08,26,07,04,11.70
2015,08,26,07,05,11.70
2015,08,26,07,06,11.70
2015,08,26,07,07,11.70
2015,08,26,07,08,11.80
2015,08,26,07,09,11.80
2015,08,26,07,10,11.80
2015,08,26,07,11,11.90
2015,08,26,07,12,11.90
2015,08,26,07,13,11.90
2015,08,26,07,14,11.90
2015,08,26,07,15,11.90
2015,08,26,07,16,11.90
2015,08,26,07,17,11.90
2015,08,26,07,18,11.90
2015,08,26,07,19,11.90
2015,08,26,07,20,11.90
2015,08,26,07,21,11.90
2015,08,26,07,22,11.90
2015,08,26,07,23,11.90
2015,08,26,07,24,12.00
2015,08,26,07,25,12.00
2015,08,26,07,26,12.00
2015,08,26,07,27,12.00
2015,08,26,07,28,12.10
2015,08,26,07,29,12.10
2015,08,26,07,30,12.10
2015,08,26,07,31,12.20
2015,08,26,07,32,12.20
2015,08,26,07,33,12.30
2015,08,26,07,34,12.30
2015,08,26,07,35,12.40
2015,08,26,07,36,12.50
2015,08,26,07,37,12.50
2015,08,26,07,38,12.60
2015,08,26,07,39,12.70
2015,08,26,07,40,12.80
2015,08,26,07,41,12.90
2015,08,26,07,42,13.00
2015,08,26,07,43,13.00
2015,08,26,07,44,13.10
2015,08,26,07,45,13.20
2015,08,26,07,46,13.30
2015,08,26,07,47,13.50
2015,08,26,07,48,13.60
2015,08,26,07,49,13.80
2015,08,26,07,50,14.00
2015,08,26,07,51,14.10
2015,08,26,07,52,14.30
2015,08,26,07,53,14.40
2015,08,26,07,54,14.70
2015,08,26,07,55,14.90
2015,08,26,07,56,15.10
2015,08,26,07,57,15.30
2015,08,26,07,58,15.50
2015,08,26,07,59,15.70
2015,08,26,08,00,15.80
2015,08,26,08,01,16.00
2015,08,26,08,02,16.20
2015,08,26,08,03,16.40
2015,08,26,08,04,16.50
2015,08,26,08,05,16.60
2015,08,26,08,06,16.80
2015,08,26,08,07,16.90
2015,08,26,08,08,17.10
2015,08,26,08,09,17.20
2015,08,26,08,10,17.30
2015,08,26,08,11,17.40
2015,08,26,08,12,17.50
2015,08,26,08,13,17.60
2015,08,26,08,14,17.70
2015,08,26,08,15,17.80
2015,08,26,08,16,17.90
2015,08,26,08,17,18.00
2015,08,26,08,18,18.00
2015,08,26,08,19,18.10
2015,08,26,08,20,18.20
2015,08,26,08,21,18.20
2015,08,26,08,22,18.30
2015,08,26,08,23,18.30
2015,08,26,08,24,18.30
2015,08,26,08,25,18.40
2015,08,26,08,26,18.40
2015,08,26,08,27,18.40
2015,08,26,08,28,18.50
2015,08,26,08,29,18.50
2015,08,26,08,30,18.50
2015,08,26,08,31,18.50
2015,08,26,08,32,18.60
2015,08,26,08,33,18.60
2015,08,26,08,34,18.60
2015,08,26,08,35,18.60
2015,08,26,08,36,18.60
2015,08,26,08,37,18.60
2015,08,26,08,38,18.60
2015,08,26,08,39,18.60
2015,08,26,08,40,18.60
2015,08,26,08,41,18.70
2015,08,26,08,42,18.70
2015,08,26,08,43,18.70
2015,08,26,08,44,18.70
2015,08,26,08,45,18.70
2015,08,26,08,46,18.80
2015,08,26,08,47,18.80
2015,08,26,08,48,18.80
2015,08,26,08,49,18.80
2015,08,26,08,50,18.80
2015,08,26,08,51,18.80
2015,08,26,08,52,18.80
2015,08,26,08,53,18.90
2015,08,26,08,54,18.90
2015,08,26,08,55,18.90
2015,08,26,08,56,18.90
2015,08,26,08,57,18.90
2015,08,26,08,58,18.90
2015,08,26,08,59,18.90
2015,08,26,09,00,18.90
2015,08,26,09,01,18.90
2015,08,26,09,02,18.90
2015,08,26,09,03,18.90
2015,08,26,09,04,18.90
2015,08,26,09,05,18.90
2015,08,26,09,06,18.90
2015,08,26,09,07,18.90
2015,08,26,09,08,18.90
2015,08,26,09,09,18.90
2015,08,26,09,10,18.90
2015,08,26,09,11,18.90
2015,08,26,09,12,18.90
2015,08,26,09,13,18.90
2015,08,26,09,14,18.90
2015,08,26,09,15,18.90
2015,08,26,09,16,18.90
2015,08,26,09,17,18.90
2015,08,26,09,18,18.90
2015,08,26,09,19,18.90
2015,08,26,09,20,18.90
2015,08,26,09,21,19.00
2015,08,26,09,22,19.00
2015,08,26,09,23,19.00
2015,08,26,09,24,19.10
2015,08,26,09,25,19.10
2015,08,26,09,26,19.10
2015,08,26,09,27,19.20
2015,08,26,09,28,19.20
2015,08,26,09,29,19.20
2015,08,26,09,30,19.20
2015,08,26,09,31,19.30
2015,08,26,09,32,19.30
2015,08,26,09,33,19.30
2015,08,26,09,34,19.30
2015,08,26,09,35,19.20
2015,08,26,09,36,19.20
2015,08,26,09,37,19.20
2015,08,26,09,38,19.20
2015,08,26,09,39,19.20
2015,08,26,09,40,19.20
2015,08,26,09,41,19.10
2015,08,26,09,42,19.10
2015,08,26,09,43,19.10
2015,08,26,09,44,19.10
2015,08,26,09,45,19.10
2015,08,26,09,46,19.10
2015,08,26,09,47,19.10
2015,08,26,09,48,19.10
2015,08,26,09,49,19.10
2015,08,26,09,50,19.20
2015,08,26,09,51,19.20
2015,08,26,09,52,19.20
2015,08,26,09,53,19.20
2015,08,26,09,54,19.20
2015,08,26,09,55,19.20
2015,08,26,09,56,19.20
2015,08,26,09,57,19.20
2015,08,26,09,58,19.20
2015,08,26,09,59,19.20
2015,08,26,10,00,19.20
2015,08,26,10,01,19.20
2015,08,26,10,02,19.20
2015,08,26,10,03,19.30
2015,08,26,10,04,19.30
2015,08,26,10,05,19.30
2015,08,26,10,06,19.30
2015,08,26,10,07,19.40
2015,08,26,10,08,19.40
2015,08,26,10,09,19.40
2015,08,26,10,10,19.40
2015,08,26,10,11,19.40
2015,08,26,10,12,19.50
2015,08,26,10,13,19.50
2015,08,26,10,14,19.60
2015,08,26,10,15,19.50
2015,08,26,10,16,19.40
2015,08,26,10,17,19.30
2015,08,26,10,18,19.30
2015,08,26,10,19,19.30
2015,08,26,10,20,19.30
2015,08,26,10,21,19.30
2015,08,26,10,22,19.30
2015,08,26,10,23,19.30
2015,08,26,10,24,19.30
2015,08,26,10,25,19.30
2015,08,26,10,26,19.40
2015,08,26,10,27,19.40
2015,08,26,10,28,19.40
2015,08,26,10,29,19.50
2015,08,26,10,30,19.60
2015,08,26,10,31,19.60
2015,08,26,10,32,19.60
2015,08,26,10,33,19.60
2015,08,26,10,34,19.60
2015,08,26,10,35,19.50
2015,08,26,10,36,19.40
2015,08,26,10,37,19.40
2015,08,26,10,38,19.40
2015,08,26,10,39,19.30
2015,08,26,10,40,19.30
2015,08,26,10,41,19.30
2015,08,26,10,42,19.30
2015,08,26,10,43,19.30
2015,08,26,10,44,19.20
2015,08,26,10,45,19.20
2015,08,26,10,46,19.20
2015,08,26,10,47,19.20
2015,08,26,10,48,19.20
2015,08,26,10,49,19.20
2015,08,26,10,50,19.20
2015,08,26,10,51,19.20
2015,08,26,10,52,19.20
2015,08,26,10,53,19.20
2015,08,26,10,54,19.20
2015,08,26,10,55,19.20
2015,08,26,10,56,19.20
2015,08,26,10,57,19.20
2015,08,26,10,58,19.20
2015,08,26,10,59,19.20
2015,08,26,11,00,19.20
2015,08,26,11,01,19.10
2015,08,26,11,02,19.10
2015,08,26,11,03,19.00
2015,08,26,11,04,19.00
2015,08,26,11,05,19.00
2015,08,26,11,06,19.00
2015,08,26,11,07,18.90
2015,08,26,11,08,18.90
2015,08,26,11,09,18.80
2015,08,26,11,10,18.80
2015,08,26,11,11,18.80
2015,08,26,11,12,18.80
2015,08,26,11,13,18.80
2015,08,26,11,14,18.90
2015,08,26,11,15,18.90
2015,08,26,11,16,19.00
2015,08,26,11,17,19.00
2015,08,26,11,18,19.10
2015,08,26,11,19,19.10
2015,08,26,11,20,19.10
2015,08,26,11,21,19.00
2015,08,26,11,22,18.90
2015,08,26,11,23,18.80
2015,08,26,11,24,18.80
2015,08,26,11,25,18.80
2015,08,26,11,26,18.80
2015,08,26,11,27,18.80
2015,08,26,11,28,18.80
2015,08,26,11,29,18.90
2015,08,26,11,30,18.90
2015,08,26,11,31,18.90
2015,08,26,11,32,19.00
2015,08,26,11,33,19.00
2015,08,26,11,34,19.00
2015,08,26,11,35,19.00
2015,08,26,11,36,18.90
2015,08,26,11,37,18.90
2015,08,26,11,38,19.00
2015,08,26,11,39,19.00
2015,08,26,11,40,19.10
2015,08,26,11,41,19.10
2015,08,26,11,42,19.10
2015,08,26,11,43,19.10
2015,08,26,11,44,19.10
2015,08,26,11,45,19.20
2015,08,26,11,46,19.20
2015,08,26,11,47,19.30
2015,08,26,11,48,19.40
2015,08,26,11,49,19.40
2015,08,26,11,50,19.50
2015,08,26,11,51,19.60
2015,08,26,11,52,19.60
2015,08,26,11,53,19.70
2015,08,26,11,54,19.70
2015,08,26,11,55,19.70
2015,08,26,11,56,19.70
2015,08,26,11,57,19.70
2015,08,26,11,58,19.70
2015,08,26,11,59,19.70
2015,08,26,12,00,19.80
2015,08,26,12,01,19.80
2015,08,26,12,02,19.80
2015,08,26,12,03,19.80
2015,08,26,12,04,19.80
2015,08,26,12,05,19.80
2015,08,26,12,06,19.80
2015,08,26,12,07,19.80
2015,08,26,12,08,19.80
2015,08,26,12,09,19.80
2015,08,26,12,10,19.90
2015,08,26,12,11,19.90
2015,08,26,12,12,19.80
2015,08,26,12,13,19.80
2015,08,26,12,14,19.80
2015,08,26,12,15,19.80
2015,08,26,12,16,19.80
2015,08,26,12,17,19.80
2015,08,26,12,18,19.80
2015,08,26,12,19,19.90
2015,08,26,12,20,19.90
2015,08,26,12,21,20.00
2015,08,26,12,22,20.00
2015,08,26,12,23,20.10
2015,08,26,12,24,20.10
2015,08,26,12,25,20.00
2015,08,26,12,26,20.00
2015,08,26,12,27,19.90
2015,08,26,12,28,19.90
2015,08,26,12,29,19.80
2015,08,26,12,30,19.80
2015,08,26,12,31,19.80
2015,08,26,12,32,19.80
2015,08,26,12,33,19.80
2015,08,26,12,34,19.80
2015,08,26,12,35,19.90
2015,08,26,12,36,20.00
2015,08,26,12,37,20.00
2015,08,26,12,38,20.10
2015,08,26,12,39,20.20
2015,08,26,12,40,20.20
2015,08,26,12,41,20.20
2015,08,26,12,42,20.10
2015,08,26,12,43,20.00
2015,08,26,12,44,20.00
2015,08,26,12,45,19.90
2015,08,26,12,46,19.80
2015,08,26,12,47,19.80
2015,08,26,12,48,19.70
2015,08,26,12,49,19.60
2015,08,26,12,50,19.60
2015,08,26,12,51,19.50
2015,08,26,12,52,19.50
2015,08,26,12,53,19.50
2015,08,26,12,54,19.40
2015,08,26,12,55,19.40
2015,08,26,12,56,19.40
2015,08,26,12,57,19.40
2015,08,26,12,58,19.40
2015,08,26,12,59,19.40
2015,08,26,13,00,19.40
2015,08,26,13,01,19.30
2015,08,26,13,02,19.30
2015,08,26,13,03,19.30
2015,08,26,13,04,19.30
2015,08,26,13,05,19.30
2015,08,26,13,06,19.30
2015,08,26,13,07,19.30
2015,08,26,13,08,19.40
2015,08,26,13,09,19.40
2015,08,26,13,10,19.50
2015,08,26,13,11,19.50
2015,08,26,13,12,19.60
2015,08,26,13,13,19.50
2015,08,26,13,14,19.50
2015,08,26,13,15,19.50
2015,08,26,13,16,19.50
2015,08,26,13,17,19.40
2015,08,26,13,18,19.40
2015,08,26,13,19,19.40
2015,08,26,13,20,19.40
2015,08,26,13,21,19.30
2015,08,26,13,22,19.30
2015,08,26,13,23,19.40
2015,08,26,13,24,19.40
2015,08,26,13,25,19.40
2015,08,26,13,26,19.40
2015,08,26,13,27,19.40
2015,08,26,13,28,19.40
2015,08,26,13,29,19.40
2015,08,26,13,30,19.50
2015,08,26,13,31,19.60
2015,08,26,13,32,19.60
2015,08,26,13,33,19.70
2015,08,26,13,34,19.70
2015,08,26,13,35,19.70
2015,08,26,13,36,19.70
2015,08,26,13,37,19.70
2015,08,26,13,38,19.60
2015,08,26,13,39,19.60
2015,08,26,13,40,19.60
2015,08,26,13,41,19.60
2015,08,26,13,42,19.60
2015,08,26,13,43,19.60
2015,08,26,13,44,19.60
2015,08,26,13,45,19.60
2015,08,26,13,46,19.60
2015,08,26,13,47,19.60
2015,08,26,13,48,19.60
2015,08,26,13,49,19.60
2015,08,26,13,50,19.60
2015,08,26,13,51,19.60
2015,08,26,13,52,19.60
2015,08,26,13,53,19.60
2015,08,26,13,54,19.60
2015,08,26,13,55,19.50
2015,08,26,13,56,19.50
2015,08,26,13,57,19.50
2015,08,26,13,58,19.50
2015,08,26,13,59,19.50
2015,08,26,14,00,19.50
2015,08,26,14,01,19.60
2015,08,26,14,02,19.60
2015,08,26,14,03,19.60
2015,08,26,14,04,19.60
2015,08,26,14,05,19.70
2015,08,26,14,06,19.70
2015,08,26,14,07,19.80
2015,08,26,14,08,19.80
2015,08,26,14,09,19.80
2015,08,26,14,10,19.80
2015,08,26,14,11,19.80
2015,08,26,14,12,19.80
2015,08,26,14,13,19.80
2015,08,26,14,14,19.80
2015,08,26,14,15,19.80
2015,08,26,14,16,19.80
2015,08,26,14,17,19.80
2015,08,26,14,18,19.80
2015,08,26,14,19,19.80
2015,08,26,14,20,19.90
2015,08,26,14,21,19.90
2015,08,26,14,22,20.00
2015,08,26,14,23,20.00
2015,08,26,14,24,20.00
2015,08,26,14,25,20.10
2015,08,26,14,26,20.10
2015,08,26,14,27,20.10
2015,08,26,14,28,20.10
2015,08,26,14,29,20.20
2015,08,26,14,30,20.10
2015,08,26,14,31,20.00
2015,08,26,14,32,20.00
2015,08,26,14,33,19.90
2015,08,26,14,34,19.90
2015,08,26,14,35,19.80
2015,08,26,14,36,19.80
2015,08,26,14,37,19.80
2015,08,26,14,38,19.80
2015,08,26,14,39,19.80
2015,08,26,14,40,19.80
2015,08,26,14,41,19.80
2015,08,26,14,42,19.90
2015,08,26,14,43,19.90
2015,08,26,14,44,19.90
2015,08,26,14,45,19.90
2015,08,26,14,46,20.00
2015,08,26,14,47,20.10
2015,08,26,14,48,20.10
2015,08,26,14,49,20.10
2015,08,26,14,50,20.10
2015,08,26,14,51,20.10
2015,08,26,14,52,20.20
2015,08,26,14,53,20.10
2015,08,26,14,54,20.10
2015,08,26,14,55,20.20
2015,08,26,14,56,20.20
2015,08,26,14,57,20.20
2015,08,26,14,58,20.30
2015,08,26,14,59,20.40
2015,08,26,15,00,20.50
2015,08,26,15,01,20.60
2015,08,26,15,02,20.70
2015,08,26,15,03,20.70
2015,08,26,15,04,20.70
2015,08,26,15,05,20.70
2015,08,26,15,06,20.70
2015,08,26,15,07,20.60
2015,08,26,15,08,20.50
2015,08,26,15,09,20.40
2015,08,26,15,10,20.30
2015,08,26,15,11,20.30
2015,08,26,15,12,20.30
2015,08,26,15,13,20.20
2015,08,26,15,14,20.20
2015,08,26,15,15,20.20
2015,08,26,15,16,20.20
2015,08,26,15,17,20.30
2015,08,26,15,18,20.30
2015,08,26,15,19,20.30
2015,08,26,15,20,20.30
2015,08,26,15,21,20.40
2015,08,26,15,22,20.40
2015,08,26,15,23,20.40
2015,08,26,15,24,20.40
2015,08,26,15,25,20.40
2015,08,26,15,26,20.40
2015,08,26,15,27,20.40
2015,08,26,15,28,20.30
2015,08,26,15,29,20.30
2015,08,26,15,30,20.30
2015,08,26,15,31,20.30
2015,08,26,15,32,20.40
2015,08,26,15,33,20.40
2015,08,26,15,34,20.40
2015,08,26,15,35,20.40
2015,08,26,15,36,20.40
2015,08,26,15,37,20.50
2015,08,26,15,38,20.50
2015,08,26,15,39,20.50
2015,08,26,15,40,20.60
2015,08,26,15,41,20.60
2015,08,26,15,42,20.60
2015,08,26,15,43,20.60
2015,08,26,15,44,20.60
2015,08,26,15,45,20.70
2015,08,26,15,46,20.70
2015,08,26,15,47,20.80
2015,08,26,15,48,20.80
2015,08,26,15,49,20.80
2015,08,26,15,50,20.80
2015,08,26,15,51,20.90
2015,08,26,15,52,20.90
2015,08,26,15,53,21.00
2015,08,26,15,54,21.10
2015,08,26,15,55,21.10
2015,08,26,15,56,21.10
2015,08,26,15,57,21.20
2015,08,26,15,58,21.20
2015,08,26,15,59,21.20
2015,08,26,16,00,21.20
2015,08,26,16,01,21.20
2015,08,26,16,02,21.20
2015,08,26,16,03,21.20
2015,08,26,16,04,21.10
2015,08,26,16,05,21.10
2015,08,26,16,06,21.10
2015,08,26,16,07,21.00
2015,08,26,16,08,21.00
2015,08,26,16,09,21.00
2015,08,26,16,10,21.00
2015,08,26,16,11,21.10
2015,08,26,16,12,21.10
2015,08,26,16,13,21.10
2015,08,26,16,14,21.10
2015,08,26,16,15,21.20
2015,08,26,16,16,21.20
2015,08,26,16,17,21.20
2015,08,26,16,18,21.30
2015,08,26,16,19,21.30
2015,08,26,16,20,21.30
2015,08,26,16,21,21.30
2015,08,26,16,22,21.30
2015,08,26,16,23,21.30
2015,08,26,16,24,21.40
2015,08,26,16,25,21.40
2015,08,26,16,26,21.40
2015,08,26,16,27,21.30
2015,08,26,16,28,21.40
2015,08,26,16,29,21.40
2015,08,26,16,30,21.40
2015,08,26,16,31,21.40
2015,08,26,16,32,21.40
2015,08,26,16,33,21.30
2015,08,26,16,34,21.30
2015,08,26,16,35,21.30
2015,08,26,16,36,21.30
2015,08,26,16,37,21.20
2015,08,26,16,38,21.10
2015,08,26,16,39,21.10
2015,08,26,16,40,21.00
2015,08,26,16,41,21.00
2015,08,26,16,42,20.90
2015,08,26,16,43,20.90
2015,08,26,16,44,21.00
2015,08,26,16,45,21.00
2015,08,26,16,46,21.00
2015,08,26,16,47,21.00
2015,08,26,16,48,21.10
2015,08,26,16,49,21.10
2015,08,26,16,50,21.20
2015,08,26,16,51,21.20
2015,08,26,16,52,21.30
2015,08,26,16,53,21.30
2015,08,26,16,54,21.40
2015,08,26,16,55,21.40
2015,08,26,16,56,21.40
2015,08,26,16,57,21.40
2015,08,26,16,58,21.40
2015,08,26,16,59,21.40
2015,08,26,17,00,21.40
2015,08,26,17,01,21.40
2015,08,26,17,02,21.40
2015,08,26,17,03,21.40
2015,08,26,17,04,21.40
2015,08,26,17,05,21.40
2015,08,26,17,06,21.40
2015,08,26,17,07,21.50
2015,08,26,17,08,21.50
2015,08,26,17,09,21.50
2015,08,26,17,10,21.50
2015,08,26,17,11,21.60
2015,08,26,17,12,21.60
2015,08,26,17,13,21.60
2015,08,26,17,14,21.70
2015,08,26,17,15,21.70
2015,08,26,17,16,21.70
2015,08,26,17,17,21.70
2015,08,26,17,18,21.70
2015,08,26,17,19,21.80